Погода в Тернополе

Погода в Тернополе : погода сейчас, прогноз погоды и архив. Всё, что Вы хотите узнать о погоде в Тернополе!

Хотите узнать прогноз погоды в Тернополе? Тогда Вам сюда: Погода в Тернополе

Поиск расширенной информации на нашем сайте:

Другие новости

Новости СМИ2

Главная страница сайта

Новости сайта

03.07.2017

Напоминаем, что на нашем специализированном сайте Метеоцентр.Азия вы можете получить высокодетализированные автоматические прогнозы погоды по пунктам России, СНГ и мира в авиационном формате (включающие направление и скорость ветра, видимость, явления погоды, количество и форму облачности, нижнюю и верхнюю границу облачности).


Погода в Тернополе - сегодня

Время (UTC), дата Ветер
(°,м/с) 
Видим.   Явления Облачность Т
(°С)
Тd
(°С)
f(%) Тe
(°С)
Pmin
(гПа)
dP
(гПа)
Po
(мм)
O2
(г/м3)
Тmin Tmax R s Состояние
почвы
09 17.06.18 350 (С) 10 км  слаб. ливневой дождь  10/8 720 м кучево-дожд., средняя 
[Cb calv|Ac und]
+15.2 +13.4 89 +22  1014.8  -0.1  732  277           
12 17.06.18 010 (С) 10 км  в посл. час ливневой дождь  9/8 930 м кучево-дожд., средняя 
[Cb calv|Ac und]
+18.4 +15.2 82 +29  1014  -0.4  732  273           
15 17.06.18 010 (С) 10 км    9/8 840 м кучево-дожд., средняя 
[Cb calv|Ac und]
+20.4 +16.3 77 +32  1012.8  -0.9  731  271           
18 17.06.18 030 (СВ) 10 км    9/8 930 м кучево-дожд., средняя 
[Cb calv|Ac und]
+19.8 +17 84 +33  1013  0.2  732  271    +20.9     
21 17.06.18 030 (СВ) 10 км  гроза без осадков  10/6 900 м кучево-дожд., средняя 
[Cb calv|Ac und]
+18 +16.5 91 +31  1013.9  0.6  732  273           
00 18.06.18 010 (С) 10 км  {гроза}  9/6 840 м средняя 
[Sc|Ac und]
+17.1 +15.9 93 +29  1013.6  -0.4  732  274           
03 18.06.18 360 (С) 4000 м  дымка  8/4 960 м средняя, верхняя 
[Sc|Ac trans|Ci fib]
+15.5 +14.6 94 +25  1013.8  732  276           
06 18.06.18 050 (СВ) 10 км    9/4 1000 м средняя 
[Sc|Ac trans]
+19.6 +17.2 86 +33  1014.1  0.8  732  271  +15.4  -2       
09 18.06.18 070 (В) 10 км  гроза, ливневой дождь  9/6 900 м кучево-дожд., средняя 
[Cb cap|Ac trans]
+23 +17.2 70 +36  1014.3  0.6  733  268           
12 18.06.18 290 (З) 10 км  в посл. час ливневой дождь{гроза}  8/6 870 м кучево-дожд. 
[Cb calv]
+18.3 +16.8 91 +32  1015.4  0.5  733  273           
15 18.06.18 040 (СВ) 10 км  слаб. ливневой дождь{гроза}  8/5 1000 м кучево-дожд., средняя 
[Cb calv|Ac trans]
+22.3 +17.7 75 +37  1014.6  -0.3  733  269           
18 18.06.18 350 (С) 10 км  {гроза, ливн. осадки}  8/5 1000 м средняя 
[Sc diur, vesp|Ac trans]
+20.4 +17.8 85 +35  1015.4  0.6  733  271    +25.4  15     
21 18.06.18 010 (С) 10 км    6/0 средняя 
[Ac trans]
+17.7 +16 90 +30  1017.4  1.5  734  274           
00 19.06.18 тихо ()   10 км    4/0 средняя 
[Ac trans]
+16.1 +14.5 90 +24  1017.8  0.2  735  276           
03 19.06.18 тихо ()   4000 м  дымка  3/0 средняя 
[Ac trans]
+15.2 +14.2 94 +23  1018.1  0.1  735  277           
06 19.06.18 тихо ()   10 км    ясно 
+20.9 +16.5 76 +33  1018.2  0.9  735  272  +15         
09 19.06.18 330 (СЗ) 10 км    3/3 1000 м 
[Cu med, cong]
+24.8 +15.7 57 +35  1017.9  0.2  736  268           
12 19.06.18 320 (СЗ) 10 км    5/5 1000 м 
[Cu med, cong]
+26.6 +16.5 54 +39  1017.3  -0.4  735  266           
15 19.06.18 280 (З) 10 км    6/4 1000 м верхняя 
[Cu hum|Ci fib]
+28.2 +16.4 49 +40  1016.3  -0.7  735  265           
18 19.06.18 290 (З) 10 км    4/3 1000 м верхняя 
[Sc|Ci fib]
+24.4 +17.4 65 +38  1017.4  0.6  735  268    +28.3       
21 19.06.18 320 (СЗ) 10 км    8/0 средняя 
[Ac trans]
+20.5 +16.6 78 +33  1019.1  1.1  736  272           
00 20.06.18 310 (СЗ) 10 км    3/0 средняя 
[Ac trans]
+18.7 +16.6 88 +32  1019.9  0.6  736  274           
03 20.06.18 320 (СЗ) 10 км    9/0 средняя 
[Ac trans]
+18.9 +15.7 82 +30  1020.9  0.9  737  274           
06 20.06.18 350 (С) 10 км    9/0 средняя 
[Ac trans]
+20.6 +15.2 71 +30  1021.4  0.7  738  273  +18.4         
09 20.06.18 270 (З) 10 км    6/6 1000 м 
[Cu hum]
+24.5 +13.5 50 +31  1021.3  0.4  738  270           
Время (UTC), дата Ветер
(°,м/с) 
Видим.   Явления Облачность Т
(°С)
Тd
(°С)
f(%) Тe
(°С)
Pmin
(гПа)
dP
(гПа)
Po
(мм)
O2
(г/м3)
Тmin Tmax R s Состояние
почвы

Для получения пояснительной информации подведите курсор к названию столбца.

ПОГОДА в Тернополе - архив

Всё, что Вы хотите узнать о погоде в Тернополе - удобно и подробно!

Выберите нужную дату (начиная с 1 января 2015* года) и нажмите кнопку "Найти".
Будут отображены архивные сводки погоды по пункту Тернополь, начиная с указанной даты.


Отображать данные в формате CSV (для использования в таблицах Excel)


Внимание! Наш архив погоды предназначен исключительно для личного некоммерческого использования в познавательных целях. Если Вам необходимы официальные справки о состоянии погоды (для производственных, юридических, коммерческих и т.п. целей), обращайтесь в органы Росгидромета.

*Примечание: данная дата относится к архиву по метеостанциям СССР (Россия, СНГ, Балтия).
Архив по метеостанциям Зарубежной Европы и Азии (кроме Китая) хранится 10 дней, по другим регионам земного шара (Китай, Африка, Америка, Австралия, Океания) - 1 день.

Тернополь - район местоположения метеостанции


Название, широта, долгота, высота метеостанции:
Тернополь 49.5°ш. 25.7°д. 329 м над ур. моря [Украина]

Дополнительная информация

В oтличие oт бoльшинства пoгoдных сайтoв мы публикуем пoдрoбную метеoинфoрмацию в детальнoм прoфессиoнальнoм фoрмате.

Характеристики температуры и влажнoсти вoздуха измеряются на высoте 2 м в тени вдали oт зданий и деревьев.
Скoрoсть ветра измеряется на высoте 10 м (на урoвне рoста челoвека скoрoсть ветра ниже в 1.5-2 раза). Если метеoстанция нахoдится в гoрoде или в лесу, тo скoрoсть ветра занижена на 2-4 м/с пo сравнению с oткрытым местoм. Скoрoсть ветра над акватoриями крупных рек и oзёр, а также на вершинах хoлмoв на 2-5 м/с выше, чем в oбычных услoвиях.
Атмoсфернoе давление в разных тoчках местнoсти мoжет значительнo oтличаться oт давления на метеoстанции, в зависимoсти oт услoвий рельефа (при пoдъёме на 10 м давление пoнижается примернo на 1 мм рт.ст.).